Burnet, TX

5:58 PM CST on February 07, 2016 (GMT -0600)
Burnet Municipal-Craddock

Weather History for KBMQ - April, 2013

Change the Weather History Date:

Wednesday, April 17, 2013

  Actual Average Record
Temperature  
Mean Temperature 77 °F -  
Max Temperature 82 °F 75 °F 100 °F (2006)
Min Temperature 72 °F 54 °F 33 °F (1999)
Cooling Degree Days 12    
Growing Degree Days 27 (Base 50)    
Moisture  
Dew Point 68 °F    
Average Humidity 80    
Maximum Humidity 93    
Minimum Humidity 54    
Precipitation  
Precipitation 0.00 in - - ()
Sea Level Pressure  
Sea Level Pressure 29.78 in    
Wind  
Wind Speed 11 mph (SSE)    
Max Wind Speed 17 mph    
Max Gust Speed 30 mph    
Visibility 5 miles    
Events      
Averages and records for this station are not official NWS values.
T = Trace of Precipitation, MM = Missing Value Source: NWS Daily Summary

Daily Weather History Graph

Daily Weather History Graph

Search for Another Location

Airport or City:

Trip Planner

Search our weather history database for the weather conditions in past years. The results will help you decide how hot, cold, wet, or windy it might be!

Date:

Astronomy

Apr. 17, 2013 Rise Set
Actual Time 7:02 AM CDT 8:02 PM CDT
Civil Twilight 6:38 AM CDT 8:27 PM CDT
Nautical Twilight 6:08 AM CDT 8:56 PM CDT
Astronomical Twilight 5:38 AM CDT 9:27 PM CDT
Moon 12:25 PM CDT (4/17) 1:32 AM CDT (4/17)
Length of Visible Light 13h 49m
Length of Day
12h 59m
Waxing Crescent, 42% of the Moon is Illuminated
Apr 17
Waxing Crescent
Apr 18
First Quarter
Apr 25
Full
May 2
Last Quarter
May 9
New

Hourly Weather History & Observations

Time (CDT) Temp. Heat Index Dew Point Humidity Pressure Visibility Wind Dir Wind Speed Gust Speed Precip Events Conditions
12:53 AM 72.0 °F - 69.1 °F 91% 29.85 in 5.0 mi SSE 13.8 mph 20.7 mph N/A   Overcast
1:20 AM 72.0 °F - 69.1 °F 91% 29.90 in 2.5 mi SSE 9.2 mph - N/A   Overcast
1:30 AM 72.0 °F - 70.0 °F 93% 29.90 in 2.5 mi SSE 8.1 mph 16.1 mph N/A   Overcast
1:40 AM 72.0 °F - 70.0 °F 93% 29.90 in 3.0 mi SSE 8.1 mph - N/A   Overcast
1:53 AM 72.0 °F - 70.0 °F 93% 29.85 in 4.0 mi SSE 8.1 mph 18.4 mph N/A   Overcast
2:22 AM 72.0 °F - 70.0 °F 93% 29.90 in 6.0 mi SSE 10.4 mph 19.6 mph N/A   Overcast
2:34 AM 72.0 °F - 70.0 °F 93% 29.89 in 5.0 mi SSE 12.7 mph 21.9 mph N/A   Overcast
2:53 AM 73.0 °F - 70.0 °F 90% 29.83 in 5.0 mi SSE 9.2 mph - N/A   Overcast
3:46 AM 73.0 °F - 69.1 °F 87% 29.87 in 4.0 mi SSE 9.2 mph - N/A   Overcast
3:53 AM 73.0 °F - 69.1 °F 87% 29.81 in 4.0 mi SSE 10.4 mph 17.3 mph N/A   Overcast
4:04 AM 73.0 °F - 68.0 °F 84% 29.86 in 4.0 mi SSE 8.1 mph 17.3 mph N/A   Haze
4:53 AM 73.0 °F - 68.0 °F 84% 29.81 in 4.0 mi SSE 10.4 mph 17.3 mph N/A   Haze
5:53 AM 72.0 °F - 68.0 °F 87% 29.81 in 4.0 mi SSE 11.5 mph 18.4 mph N/A   Overcast
6:04 AM 72.0 °F - 66.9 °F 84% 29.86 in 4.0 mi SSE 12.7 mph 20.7 mph N/A   Haze
6:53 AM 72.0 °F - 66.9 °F 84% 29.82 in 5.0 mi SSE 10.4 mph 18.4 mph N/A   Haze
7:53 AM 72.0 °F - 66.9 °F 84% 29.82 in 4.0 mi SSE 11.5 mph 20.7 mph N/A   Haze
8:36 AM 73.0 °F - 66.0 °F 79% 29.87 in 4.0 mi SSE 10.4 mph 20.7 mph N/A   Haze
9:53 AM 73.9 °F - 64.9 °F 73% 29.81 in 5.0 mi SSE 11.5 mph 25.3 mph N/A   Haze
10:53 AM 75.9 °F - 64.9 °F 69% 29.81 in 6.0 mi SSE 16.1 mph 27.6 mph N/A   Haze
11:53 AM 78.1 °F - 64.9 °F 64% 29.80 in 6.0 mi SSE 13.8 mph 23.0 mph N/A   Haze
12:49 PM 80.6 °F 82.3 °F 64.4 °F 58% 29.82 in 6.0 mi SSE 16.1 mph 29.9 mph N/A   Haze
12:53 PM 80.1 °F 81.9 °F 64.9 °F 60% 29.77 in 6.0 mi SSE 17.3 mph 29.9 mph N/A   Haze
1:53 PM 82.0 °F 83.8 °F 64.9 °F 56% 29.74 in 6.0 mi SSE 17.3 mph 29.9 mph N/A   Haze
2:53 PM 82.0 °F 83.4 °F 64.0 °F 54% 29.71 in 6.0 mi SSE 11.5 mph 25.3 mph N/A   Haze
3:53 PM 80.1 °F 81.9 °F 64.9 °F 60% 29.68 in 5.0 mi SE 16.1 mph 27.6 mph N/A   Haze
4:53 PM 79.0 °F - 66.9 °F 66% 29.68 in 5.0 mi SSE 12.7 mph 24.2 mph N/A   Haze
5:06 PM 78.1 °F - 66.9 °F 68% 29.73 in 5.0 mi SSE 13.8 mph 20.7 mph N/A   Haze
5:45 PM 78.1 °F - 68.0 °F 71% 29.73 in 7.0 mi SE 10.4 mph 26.5 mph N/A   Overcast
5:53 PM 77.0 °F - 68.0 °F 74% 29.68 in 7.0 mi SE 11.5 mph - N/A   Overcast
6:53 PM 75.0 °F - 68.0 °F 79% 29.67 in 6.0 mi SSE 9.2 mph - N/A   Haze
7:53 PM 75.0 °F - 68.0 °F 79% 29.66 in 6.0 mi SSE 8.1 mph 17.3 mph N/A   Haze
8:51 PM 75.2 °F - 69.8 °F 83% 29.72 in 7.0 mi SSE 8.1 mph 19.6 mph N/A   Overcast
8:53 PM 75.0 °F - 69.1 °F 82% 29.68 in 7.0 mi SSE 8.1 mph 19.6 mph N/A   Overcast
9:19 PM 73.9 °F - 69.1 °F 85% 29.72 in 6.0 mi SSE 9.2 mph 21.9 mph N/A   Haze
9:26 PM 73.9 °F - 69.1 °F 85% 29.73 in 6.0 mi South 9.2 mph 17.3 mph N/A   Haze
9:53 PM 73.9 °F - 69.1 °F 85% 29.68 in 6.0 mi SSE 11.5 mph 18.4 mph N/A   Haze
10:45 PM 73.9 °F - 69.1 °F 85% 29.73 in 5.0 mi SSE 8.1 mph 21.9 mph N/A   Haze
10:53 PM 73.9 °F - 69.1 °F 85% 29.69 in 6.0 mi SSE 11.5 mph 17.3 mph N/A   Haze
11:16 PM 73.9 °F - 69.1 °F 85% 29.73 in 5.0 mi SSE 9.2 mph 27.6 mph N/A   Haze
11:53 PM 73.0 °F - 70.0 °F 90% 29.68 in 3.0 mi SSE 11.5 mph 23.0 mph N/A   Overcast